Home > Weather > Barranquilla > Past weeks

Flag for Colombia Weather for the Past 2 Weeks in Barranquilla, Colombia

Now
81 °F

Clear.


Feels Like: 85 °F
Forecast: 80 / 88 °F
Wind: 6 mph from Northeast

Location: Barranquilla / Ernestocortissoz

Current Time: Feb 11, 2016 at 5:11:10 AM

Latest Report: Feb 11, 2016 at 4:00 AM


Visibility: 10 mi

Pressure: 29.81 "Hg

Humidity: 74%

Dew point: 72 °F

Location of BarranquillaLocation

Historic Weather in Barranquilla — Graph

°F

Barranquilla Temperature Yesterday

Maximum temperature yesterday: 91 °F (at 11:00 AM)
Minimum temperature yesterday: 79 °F (at 12:00 AM)
Average temperature yesterday: 82 °F

High & Low Weather Summary for the Past Weeks

 TemperatureHumidityPressure
High93 °F (Jan 28, 12:00 PM)100% (Jan 28, 6:00 AM)29.95 "Hg (Jan 28, 6:00 AM)
Low73 °F (Jan 28, 5:00 AM)52% (Jan 27, 1:00 PM)29.75 "Hg (Jan 27, 4:00 PM)
Average82 °F79%29.84 "Hg
* Reported Jan 27 4:00 AM — Feb 11 4:00 AM, Barranquilla, Weather by CustomWeather, © 2016

Note: Actual official high and low records may vary slightly from our data, if they occured in-between our weather recording intervals... More about our weather records

Advertising

Barranquilla Weather History for the Previous 24 Hours

 ConditionsComfort  
Time TempWeatherWind HumidityBarometerVisibility
4:00 AM
Thu, Feb 11
81 °FClear.6 mph74%29.81 "Hg10 mi
3:00 AM81 °FClear.9 mph74%29.81 "Hg10 mi
2:00 AM79 °FClear.10 mph84%29.81 "Hg10 mi
1:00 AM79 °FClear.24 mph89%29.82 "Hg10 mi
12:00 AM79 °FPassing clouds.18 mph89%29.85 "HgN/A
11:00 PM
Wed, Feb 10
81 °FPassing clouds.18 mph84%29.87 "HgN/A
10:00 PM81 °FPassing clouds.13 mph84%29.88 "HgN/A
9:00 PM81 °FClear.15 mph84%29.86 "Hg10 mi
8:00 PM81 °FPassing clouds.18 mph84%29.86 "HgN/A
7:00 PM81 °FPassing clouds.15 mph84%29.85 "HgN/A
6:00 PM81 °FPartly sunny.13 mph84%29.85 "Hg5 mi
5:00 PM82 °FScattered clouds.14 mph79%29.84 "HgN/A
4:00 PM84 °FScattered clouds.16 mph70%29.83 "HgN/A
3:00 PM86 °FScattered clouds.14 mph70%29.84 "HgN/A
2:00 PM86 °FScattered clouds.18 mph66%29.86 "HgN/A
1:00 PM88 °FSunny.14 mph66%29.87 "Hg10 mi
12:00 PM90 °FSunny.10 mph63%29.89 "Hg10 mi
11:00 AM91 °FSunny.6 mph59%29.91 "Hg10 mi
10:00 AM88 °FSunny.5 mph66%29.92 "Hg10 mi
9:00 AM84 °FSunny.3 mph74%29.92 "Hg10 mi
8:00 AM81 °FClear.5 mph84%29.91 "Hg4 mi
7:00 AM79 °FFog.3 mph94%29.88 "Hg2 mi
6:00 AM79 °FFog.5 mph94%29.85 "Hg2 mi
5:00 AM79 °FFog.7 mph100%29.83 "Hg4 mi
Weather by CustomWeather, © 2016

See weather overviewHow to use our weather pages